Lid_Strength_Index
3 4 4 4 4 4 3 3 3 3 3 3 3 3 3 4 4 7 10 8 9 6 8 13 13 14 13 14 13 13 18 20 20 19 18 15 17 14 13 14 13 11 10 9 8
4 4 4 4 4 4 3 3 3 3 3 4 3 3 4 4 8 9 5 5 5 6 12 14 15 15 17 16 15 16 19 19 16 16 17 17 16 16 16 15 14 13 11 9 8
4 4 4 4 4 4 4 4 3 4 4 4 4 4 4 7 12 11 6 6 6 8 11 13 14 15 18 17 17 17 19 17 17 16 16 17 17 16 16 16 14 14 12 10 9
3 4 4 4 4 4 4 4 4 4 4 4 4 4 5 10 18 10 7 6 7 11 13 15 16 18 19 19 17 19 17 17 17 16 16 17 16 17 16 15 12 12 11 10 9
4 4 4 4 5 4 4 4 4 4 4 4 4 4 10 15 15 9 6 8 11 12 14 15 17 18 19 18 18 19 18 17 16 16 16 16 17 17 16 13 12 12 11 10 10
3 3 4 5 5 5 4 4 4 4 4 4 4 5 13 18 12 9 11 11 12 13 14 15 16 16 18 18 19 18 18 17 17 17 16 17 16 16 15 13 12 12 11 10 10
3 4 4 5 5 6 5 5 4 4 4 4 4 9 14 16 12 13 12 13 13 13 15 14 14 16 17 19 17 18 19 18 17 17 17 16 18 18 14 14 14 12 12 12 12
3 3 4 5 4 5 4 4 4 4 4 4 4 12 16 12 13 13 13 13 13 13 14 13 14 16 17 17 19 20 20 22 18 17 16 17 21 16 14 15 14 13 15 14 13
3 3 4 5 4 4 4 4 4 4 3 4 10 14 16 9 14 13 14 15 14 14 13 12 14 17 17 21 23 22 24 23 21 17 17 18 20 17 15 16 16 17 17 16 15
2 3 4 5 5 4 4 4 4 6 8 10 12 16 15 16 14 14 14 14 15 15 16 16 18 21 22 24 25 24 24 22 22 19 18 20 20 17 18 18 19 18 18 17 17
3 3 3 5 5 4 8 12 14 15 14 17 17 17 16 15 14 15 14 15 16 17 21 19 23 24 22 21 21 21 23 23 21 19 21 21 20 19 18 19 20 19 18 18 17
2 3 4 5 6 6 12 15 16 15 18 15 16 16 15 15 17 15 14 18 18 21 20 22 25 21 19 19 20 21 23 24 21 19 20 21 21 20 20 19 20 19 18 18 18
3 3 4 5 6 11 14 14 12 13 18 17 15 16 16 15 17 17 15 17 19 21 22 24 22 19 19 20 22 23 24 24 23 21 21 22 24 21 20 20 19 19 18 18 18
3 3 4 5 11 14 15 12 12 13 20 19 18 17 16 16 18 15 15 17 19 21 22 22 20 20 21 22 22 26 21 21 22 24 27 22 29 24 21 21 20 20 19 19 18
3 4 6 9 14 15 14 11 12 14 23 18 18 14 16 18 18 18 15 17 20 21 22 22 22 21 22 21 20 23 21 23 24 26 27 26 29 24 24 23 22 21 20 19 18
3 4 6 11 13 14 11 12 14 19 23 20 18 19 19 18 18 17 17 16 18 20 20 22 20 20 21 19 19 21 26 27 28 28 32 28 28 24 25 24 23 21 21 20 19
3 4 9 11 14 12 12 15 19 21 18 20 20 19 19 20 19 19 20 22 23 25 25 23 22 20 19 22 21 27 28 30 31 33 29 25 28 25 24 26 23 22 21 21 20
5 6 9 11 12 12 14 18 21 17 20 19 19 19 21 20 20 20 21 24 21 24 27 26 25 22 19 23 25 31 28 30 33 32 30 26 29 25 26 25 24 22 22 21 21
6 12 12 13 11 13 16 22 18 17 18 19 20 22 21 20 21 22 23 23 22 22 23 28 25 21 20 22 22 28 29 27 31 33 32 31 29 25 25 25 24 24 22 22 22
11 13 13 11 11 13 17 16 17 18 18 18 18 19 23 22 23 25 23 21 21 21 25 24 26 21 22 21 23 25 24 29 31 34 34 32 33 26 26 25 24 24 23 22 23
12 14 12 11 12 15 19 18 16 16 16 17 19 21 20 22 22 23 21 20 19 22 22 25 25 24 22 24 28 26 28 32 29 29 32 33 30 25 24 23 24 23 23 24 24
13 16 12 12 16 17 20 17 13 16 16 17 17 17 18 19 21 21 21 19 18 20 22 22 26 27 25 27 26 28 28 29 28 32 33 33 30 23 23 23 22 22 23 25 24
13 15 12 13 20 19 17 16 15 17 17 17 17 16 18 19 18 20 19 17 18 19 20 22 27 28 26 27 25 27 29 28 30 31 34 32 26 26 27 26 24 23 23 24 23
13 17 14 16 17 19 20 18 17 16 16 17 18 18 20 21 19 19 20 18 18 18 16 17 25 24 22 21 25 28 29 27 24 29 27 27 24 21 25 25 24 24 23 24 25
12 15 14 17 17 17 17 17 17 17 17 18 19 18 19 22 21 21 19 19 18 16 16 19 25 25 23 22 25 26 26 26 26 23 26 22 23 21 19 19 19 21 21 23 24
13 14 15 16 17 17 16 18 16 15 17 18 18 16 17 18 17 17 17 18 19 19 18 18 24 24 25 22 23 24 23 23 25 23 23 22 23 16 16 28 26 24 23 22 22
9 10 12 13 16 17 16 15 15 13 14 12 15 15 17 17 14 13 12 14 15 19 20 20 21 22 25 31 29 28 25 22 21 19 21 24 21 17 21 24 23 23 23 22 21